This demonstration page uses our WeatherBlox Daily Observations layout. Learn more.

Left ArrowRight Arrow

38.80484, -77.04692

Hourly Observations for January 30, 2022

Temp ( °F °C ) Dew Point ( °F °C ) Humidity (%) Winds ( mph kmh ) Pressure ( in mb ) Visibility ( mi km ) Precip ( " mm )
12:52 am 00:52 Mostly Clear 21 -6.1 0 -17.8 39 39 NNW 14 22 30.04 1017 10 16 0.00 0.00
1:52 am 01:52 Mostly Clear 20 -6.7 1 -17.2 43 43 NW 9 15 30.05 1018 10 16 0.00 0.00
2:52 am 02:52 Clear 20 -6.7 1 -17.2 43 43 WNW 9 15 30.07 1018 10 16 0.00 0.00
3:52 am 03:52 Mostly Clear 20 -6.7 1 -17.2 43 43 W 5 7 30.07 1018 10 16 0.00 0.00
4:52 am 04:52 Clear 19 -7.2 1 -17.2 45 45 W 6 9 30.09 1019 10 16 0.00 0.00
5:52 am 05:52 Mostly Clear 20 -6.7 2 -16.7 45 45 WNW 7 11 30.10 1019 10 16 0.00 0.00
6:52 am 06:52 Mostly Clear 19 -7.2 2 -16.7 47 47 SW 6 9 30.12 1020 10 16 0.00 0.00
7:52 am 07:52 Mostly Sunny 19 -7.2 4 -15.6 51 51 WSW 5 7 30.13 1020 10 16 0.00 0.00
8:52 am 08:52 Partly Cloudy 22 -5.6 3 -16.1 44 44 S 5 7 30.13 1020 10 16 0.00 0.00
9:52 am 09:52 Partly Cloudy 25 -3.9 4 -15.6 40 40 W 6 9 30.14 1021 10 16 0.00 0.00
10:52 am 10:52 Mostly Cloudy 26 -3.3 3 -16.1 37 37 W 7 11 30.14 1021 10 16 0.00 0.00
11:52 am 11:52 Cloudy 28 -2.2 3 -16.1 34 34 SW 8 13 30.13 1020 10 16 0.00 0.00
12:52 pm 12:52 Mostly Cloudy 29 -1.7 4 -15.6 34 34 SSW 9 15 30.09 1019 10 16 0.00 0.00
1:52 pm 13:52 Mostly Cloudy 31 -0.6 8 -13.3 38 38 S 12 19 30.06 1018 10 16 0.00 0.00
2:52 pm 14:52 Sunny 30 -1.1 10 -12.2 43 43 S 8 13 30.04 1017 10 16 0.00 0.00
2:54 pm 14:54 Mostly Cloudy 30 -1.1 10 -12.2 43 43 S 8 13 30.04 1017 10 16 0.00 0.00
3:52 pm 15:52 Mostly Cloudy 31 -0.6 10 -12.2 42 42 Calm 30.02 1017 10 16 0.00 0.00
4:52 pm 16:52 Mostly Cloudy 31 -0.6 11 -11.7 43 43 S 5 7 30.05 1018 10 16 0.00 0.00
5:52 pm 17:52 Cloudy 31 -0.6 10 -12.2 42 42 SE 7 11 30.06 1018 10 16 0.00 0.00
6:52 pm 18:52 Cloudy 30 -1.1 10 -12.2 43 43 ESE 7 11 30.10 1019 10 16 0.00 0.00
7:52 pm 19:52 Cloudy 30 -1.1 10 -12.2 43 43 ESE 5 7 30.14 1021 10 16 0.00 0.00
8:52 pm 20:52 Cloudy 29 -1.7 10 -12.2 45 45 ESE 5 7 30.14 1021 10 16 0.00 0.00
9:52 pm 21:52 Cloudy 29 -1.7 11 -11.7 47 47 E 3 6 30.15 1021 10 16 0.00 0.00
10:52 pm 22:52 Cloudy 29 -1.7 12 -11.1 49 49 Calm 30.16 1021 10 16 0.00 0.00
11:52 pm 23:52 Cloudy 29 -1.7 15 -9.4 56 56 Calm 30.16 1021 10 16 0.00 0.00

Powered by AerisWeather